Temp
28 28 28 28 28 27 27 27 27 27 27 27 27 27 27 28 28 28 28 28 28 27 27 27 27 27 27 27 27 27 27 26 26 25 25 25 25 26 26 25 25 25 25 25 25 25 25 25 25 25 24 25 25 25 26 25 24 25 25 25 25 24 24 24 25 25 25 26 26 26 26 25 24 24 24 24 23 22 22 22 22 22 22 22 22
29 28 28 28 28 28 27 27 27 27 27 27 27 27 27 27 28 28 28 28 28 28 27 27 27 27 27 27 27 27 27 26 26 26 25 25 25 26 26 25 25 25 25 25 25 25 25 24 24 24 24 24 24 25 25 25 25 25 25 25 25 25 24 24 24 25 25 25 25 25 25 25 25 24 23 24 23 23 22 22 22 22 22 22 22
29 28 28 28 28 28 28 28 27 27 28 28 28 28 28 28 27 28 28 28 28 28 28 27 27 27 27 27 27 27 27 26 26 26 26 25 25 25 26 26 26 25 25 25 25 25 25 24 24 24 24 24 24 24 25 25 25 25 25 25 25 25 24 24 24 24 25 25 25 25 25 24 24 24 23 23 23 23 23 22 22 22 22 22 23
30 29 28 28 28 28 28 28 28 28 28 28 28 28 28 28 28 28 28 29 28 28 28 28 27 27 27 27 27 27 27 26 26 26 26 25 25 25 26 26 26 25 25 25 25 25 25 24 24 25 25 24 24 24 25 25 25 25 25 25 25 25 25 24 24 24 25 25 25 25 25 24 24 24 24 23 23 23 23 22 22 22 22 22 22
31 30 29 29 29 28 28 28 28 28 29 29 29 29 29 29 29 28 28 29 29 28 28 27 27 27 27 27 27 27 27 26 26 26 26 26 25 26 26 26 26 26 25 25 25 25 25 25 25 25 25 25 24 24 24 25 25 25 25 25 25 25 25 25 24 24 24 24 25 25 24 24 24 24 23 23 23 23 23 23 22 22 22 22 22
32 30 30 30 29 29 28 29 29 29 29 29 30 30 30 30 30 29 28 29 29 29 28 28 27 27 27 27 27 27 26 26 26 26 26 26 26 26 26 26 26 26 25 25 25 25 25 25 25 25 25 25 25 24 24 25 25 25 25 24 24 24 24 24 24 24 23 24 24 24 24 24 24 23 23 23 23 23 23 22 22 22 22 22 22
32 31 31 31 30 29 29 29 29 29 29 29 30 30 30 31 31 30 29 29 29 29 29 28 27 27 27 27 27 27 26 26 26 26 26 26 26 26 26 26 26 26 26 26 26 26 25 25 25 25 25 25 25 25 24 25 25 25 24 24 24 24 24 24 24 24 23 23 24 24 24 24 23 23 23 23 23 23 23 23 22 22 22 22 22
32 32 31 31 30 29 29 29 29 29 29 29 30 30 31 31 31 31 30 29 29 29 30 29 28 27 27 27 27 27 26 26 26 26 26 26 26 26 26 26 26 26 26 26 26 26 26 26 26 25 25 25 25 25 25 25 25 25 24 24 24 24 24 24 24 24 24 24 24 24 24 24 24 23 23 23 22 23 23 23 23 22 22 22 21
33 32 31 31 30 29 29 29 29 29 29 29 29 30 31 31 31 31 30 30 29 29 30 30 29 28 27 27 27 27 27 26 26 26 26 26 26 26 26 26 26 26 26 26 26 26 26 26 26 26 26 25 25 25 25 25 25 25 24 24 24 24 24 24 24 24 24 24 24 24 24 24 24 23 23 23 22 22 22 22 23 23 22 22 21
33 32 31 31 30 29 29 29 29 29 29 29 29 29 30 30 30 30 30 30 30 29 30 30 30 29 28 27 27 27 27 27 27 26 26 26 26 26 26 26 26 26 26 26 26 27 27 27 27 27 26 26 25 25 25 25 25 24 24 24 24 24 24 24 24 24 24 24 24 24 24 24 24 24 24 23 23 22 22 22 22 22 22 22 22
32 32 32 31 30 29 29 28 29 28 29 29 29 28 29 30 30 30 30 30 30 29 29 29 30 30 29 28 27 27 27 27 27 27 27 26 26 26 27 26 26 26 26 26 27 27 27 27 27 27 26 26 25 25 24 25 24 24 24 24 24 24 24 24 24 24 24 24 24 24 24 24 24 24 24 24 23 23 23 23 22 22 22 22 22
32 32 31 31 30 30 29 28 28 28 28 28 28 28 28 29 29 29 29 29 29 29 29 29 29 30 29 29 28 28 28 27 27 27 27 27 26 26 27 27 26 26 26 26 26 27 27 27 27 27 27 26 25 25 24 24 24 24 24 24 24 23 23 24 24 24 24 24 24 24 24 24 24 25 25 24 24 23 23 23 22 22 22 22 22
33 31 31 31 30 29 29 29 28 28 28 28 28 28 28 28 29 29 29 29 29 29 29 29 29 29 29 29 29 28 28 28 27 27 27 27 27 27 27 27 27 27 27 27 27 27 27 27 27 27 27 26 25 25 24 24 24 24 24 24 23 23 23 23 23 24 24 24 24 24 24 24 24 25 25 24 24 23 23 22 22 22 22 22 22
33 31 31 30 30 29 29 29 28 28 28 28 28 28 28 28 28 28 28 28 28 28 28 28 28 28 29 29 29 29 29 28 27 27 27 27 27 26 27 27 27 27 27 26 27 27 26 26 27 27 27 26 25 24 24 24 24 23 23 23 23 23 23 23 23 23 24 24 24 24 24 24 24 24 24 24 24 23 23 22 22 22 22 22 21
33 31 31 30 30 29 29 29 28 28 28 28 28 28 28 28 28 28 28 28 28 28 28 28 28 28 28 29 29 29 29 29 28 27 27 27 26 26 26 27 27 27 27 26 26 26 26 26 26 26 26 26 25 25 24 23 23 23 23 22 23 22 22 22 22 22 23 23 23 23 24 24 24 24 24 24 23 23 22 22 22 21 21 21 21
32 31 31 30 30 29 29 29 29 28 28 28 28 28 28 28 28 28 28 28 28 28 28 28 28 28 28 28 28 29 29 29 28 28 27 27 26 26 25 26 26 27 27 26 26 26 26 26 26 26 26 26 25 25 24 24 23 22 22 22 22 22 22 22 22 22 22 22 22 23 23 23 24 24 24 23 22 22 21 22 21 21 20 21 21
32 31 30 30 30 30 29 29 29 29 28 28 28 28 28 28 28 28 28 28 29 28 28 28 28 28 28 28 28 28 29 29 28 28 27 26 26 26 25 25 26 26 26 27 26 26 26 26 26 26 26 26 25 25 25 24 23 22 22 22 22 23 23 23 22 22 22 22 22 22 22 22 23 23 23 23 22 21 21 21 21 21 21 21 21
32 31 30 30 30 30 29 29 29 29 29 28 28 28 28 28 28 28 28 28 29 29 29 29 28 28 28 28 28 28 28 28 28 28 27 27 26 26 25 25 25 26 26 26 26 26 26 26 26 25 26 26 25 24 24 24 23 23 23 23 23 23 23 23 23 22 22 21 21 21 21 21 22 22 22 22 22 21 21 21 22 22 22 21 21
32 31 31 30 30 30 30 30 29 29 29 29 29 29 28 28 28 28 28 28 29 29 29 29 29 29 28 28 28 28 28 28 28 28 27 27 26 25 25 25 25 25 26 26 26 26 26 26 26 25 26 26 25 24 24 24 24 24 24 24 24 24 24 24 23 22 22 21 21 20 20 20 21 21 21 21 21 21 20 21 22 22 22 22 22
32 31 31 31 30 30 30 30 29 29 29 29 29 29 28 29 28 28 28 28 29 29 29 29 29 29 29 29 29 28 28 28 28 28 27 27 26 25 25 25 25 25 25 26 26 26 26 26 26 25 25 25 25 25 24 24 24 24 24 24 24 24 24 23 23 22 22 21 20 20 20 20 20 20 20 20 20 20 20 20 21 21 22 22 22
31 31 31 31 31 30 30 30 29 29 29 29 29 29 29 29 29 29 29 29 29 29 29 29 29 30 29 30 30 29 29 29 29 28 27 27 26 25 25 25 25 25 26 26 26 26 26 26 26 26 25 25 25 25 24 24 23 24 24 24 24 24 24 23 23 22 21 21 20 20 20 20 20 20 20 20 19 20 19 19 20 21 21 22 22
31 31 31 31 31 31 30 30 30 30 30 29 29 29 29 29 29 29 29 29 29 29 29 29 29 29 29 29 30 30 29 29 29 28 28 27 27 26 25 25 25 25 26 26 26 26 26 27 26 26 25 25 25 25 24 24 23 23 24 24 24 24 24 23 22 21 21 21 21 21 21 20 20 21 21 20 20 20 19 19 20 20 21 22 23
31 31 31 31 31 31 30 30 30 30 30 29 29 29 29 29 29 29 29 29 29 29 28 28 29 29 29 29 29 29 29 29 29 28 28 27 26 26 25 25 25 25 26 26 26 26 26 27 27 26 25 25 24 24 24 24 23 23 23 23 24 23 23 23 22 21 21 21 21 21 21 21 21 21 22 22 22 21 20 20 20 20 20 21 22
30 30 30 30 30 30 30 30 30 30 30 29 29 29 28 28 28 28 28 28 29 29 29 29 29 29 29 29 29 29 29 29 29 28 28 27 27 26 26 25 25 25 25 26 26 26 27 27 27 26 26 25 24 24 24 23 23 23 22 23 23 23 23 23 22 21 22 21 21 21 21 21 22 22 23 23 23 22 22 21 21 21 20 20 21
30 30 30 30 30 30 30 30 30 29 29 29 29 29 28 28 28 28 28 28 28 29 29 29 29 29 29 29 29 28 29 29 29 29 28 27 27 26 26 25 25 25 25 25 25 26 26 27 27 27 26 25 24 24 23 23 23 23 22 22 23 22 22 22 22 21 21 22 21 21 21 22 22 23 23 23 22 22 22 21 21 21 21 20 20
29 29 30 29 29 30 30 30 30 29 29 29 29 29 29 29 29 28 28 29 29 29 29 29 29 29 29 29 29 28 28 28 28 29 28 28 27 26 26 25 25 25 25 25 25 25 25 26 26 26 26 25 24 23 23 22 22 22 21 21 22 22 22 22 22 21 21 21 21 22 22 22 22 23 23 22 22 22 21 21 22 22 21 20 19
29 29 29 29 29 29 30 30 30 29 29 29 30 29 29 29 29 29 29 29 29 29 29 29 29 29 29 29 29 29 29 28 29 29 28 27 26 26 25 25 25 25 24 24 24 24 25 25 25 25 25 25 24 24 23 22 21 21 21 21 21 21 22 22 21 21 21 21 22 22 22 22 22 22 22 21 21 21 20 21 21 21 20 19 19
29 29 29 29 29 29 29 30 30 30 30 30 30 30 30 30 30 29 28 28 29 29 29 29 28 29 29 29 28 28 28 28 28 28 26 25 24 24 24 23 23 23 23 24 24 24 24 24 24 23 23 22 22 21 21 20 20 20 20 20 20 21 21 21 21 21 21 22 22 22 22 22 22 21 21 20 21 20 19 20 20 20 20 19 19
28 28 28 28 28 28 29 29 29 30 31 30 28 27 27 28 28 27 26 26 26 26 27 27 27 27 27 27 26 26 26 27 26 26 25 24 24 23 23 22 22 22 23 24 24 23 23 22 21 20 19 19 19 19 18 18 18 18 19 19 20 20 21 21 21 21 21 21 22 22 22 22 21 20 20 20 20 19 19 19 19 20 20 19 19
27 27 27 27 26 27 27 27 27 28 30 29 26 25 25 25 26 26 25 25 25 25 25 25 25 25 25 25 24 24 24 24 25 25 25 25 25 25 23 22 21 21 22 23 22 21 21 21 19 18 18 18 18 18 18 18 17 17 18 18 19 20 20 21 21 21 21 21 22 22 21 21 20 20 20 20 19 19 19 19 19 19 19 19 19
26 26 26 26 26 26 26 26 26 26 27 27 27 26 25 25 25 25 25 25 25 25 25 25 25 24 24 24 24 25 24 24 24 25 25 25 25 25 23 22 20 20 21 22 21 20 20 20 18 17 17 18 18 18 18 17 17 17 17 18 19 19 20 20 21 21 21 21 21 21 21 21 20 20 20 19 19 19 19 19 19 19 19 19 19
25 25 25 25 25 26 26 26 26 26 26 26 27 27 26 25 25 25 25 24 24 24 25 25 24 24 24 23 23 24 25 25 25 26 26 26 25 24 22 21 20 18 18 19 19 19 19 20 18 18 17 18 19 19 18 17 17 17 17 18 18 19 19 20 20 21 21 20 20 20 20 20 20 19 20 20 19 19 19 18 18 18 19 19 19
25 25 25 25 25 25 25 25 26 26 26 26 26 27 27 27 26 26 25 25 25 24 24 24 24 24 24 23 22 22 23 24 25 25 25 24 23 21 20 20 19 17 14 14 16 18 19 20 19 18 18 18 19 19 19 18 18 18 18 18 18 19 19 20 20 20 20 20 20 19 20 20 20 19 20 20 19 19 19 18 18 18 18 19 20
24 24 24 25 25 25 25 25 25 25 25 26 26 27 26 26 26 26 26 26 25 24 24 24 23 23 23 22 22 21 21 22 23 23 22 21 20 19 18 19 20 18 14 12 13 16 18 19 19 19 19 19 19 19 18 18 17 17 18 18 18 18 19 19 19 19 19 19 19 19 20 20 20 19 19 19 19 19 19 19 19 18 19 19 20
24 24 24 25 25 25 25 25 25 24 24 25 26 26 26 25 26 26 26 26 26 25 25 24 23 23 22 22 21 21 21 21 22 22 21 20 19 18 17 17 18 17 14 12 12 14 16 18 19 19 19 19 19 19 18 18 17 17 18 18 18 18 18 19 19 19 19 19 19 19 19 19 19 19 19 19 19 19 19 19 19 19 19 20 20
25 25 25 25 25 25 24 24 24 24 24 24 25 25 25 26 26 26 26 26 25 25 25 25 23 23 22 21 21 21 21 21 21 21 21 20 19 18 16 15 15 15 15 14 13 13 14 16 18 19 19 19 19 19 18 18 17 17 18 18 18 18 18 18 18 18 18 19 19 19 19 19 19 18 18 19 19 19 19 19 20 20 20 20 20
25 25 25 25 25 24 24 23 23 23 23 24 25 25 25 25 25 25 26 25 25 25 25 24 24 23 23 22 21 20 21 22 21 21 21 20 19 18 16 15 14 15 15 15 15 14 14 15 17 18 19 19 19 19 18 18 18 18 17 17 17 18 18 18 18 18 18 18 18 19 19 19 19 18 18 19 19 19 19 20 20 20 20 20 20
23 23 23 24 24 24 24 24 23 23 24 25 25 25 25 25 25 25 25 25 25 25 24 24 23 23 23 22 20 19 20 21 22 22 21 21 20 19 18 17 16 15 15 15 15 15 15 15 16 17 18 19 19 18 18 18 17 17 17 17 17 17 18 18 18 18 18 18 18 18 18 18 18 18 18 19 19 19 19 20 21 21 21 20 20
22 22 22 23 24 24 24 24 24 24 25 25 25 25 25 25 25 25 25 25 25 25 24 24 24 23 22 21 19 17 18 20 22 22 21 20 20 19 19 19 18 17 16 15 14 15 15 15 16 16 17 18 18 18 17 17 17 17 17 17 17 17 17 17 17 17 17 17 17 17 18 18 18 18 19 19 19 19 20 21 21 21 21 20 19
24 23 22 23 23 24 24 25 25 25 25 25 25 25 25 25 24 24 25 25 25 25 24 24 24 24 22 20 19 17 17 20 21 21 20 20 19 19 18 18 17 17 17 17 16 16 16 16 16 16 17 18 18 17 17 16 16 16 17 17 17 17 17 17 17 17 17 17 17 17 18 18 18 19 19 19 19 20 20 21 20 20 20 19 19
24 23 23 23 23 24 25 25 24 24 24 24 24 24 24 24 24 24 25 25 25 25 25 25 24 23 22 21 19 18 18 20 21 21 20 19 19 18 17 17 17 17 17 17 17 17 17 16 16 17 17 17 17 17 16 16 16 16 16 16 16 16 16 17 17 17 17 17 17 18 18 18 19 19 19 19 19 20 20 20 20 20 20 19 18
23 23 23 23 23 23 24 24 23 23 23 23 23 23 23 23 23 23 24 24 24 24 24 24 23 23 22 21 20 19 19 20 21 21 20 19 19 18 17 17 17 16 16 16 17 18 18 17 16 17 17 17 16 16 16 16 16 16 16 16 16 16 16 17 17 17 17 17 17 18 18 18 18 19 19 19 19 20 20 19 19 19 19 19 19
23 23 23 23 23 22 22 22 22 22 22 22 22 22 22 22 23 23 23 23 23 23 23 23 23 23 22 21 20 20 20 21 21 20 19 19 18 17 17 16 16 16 16 16 16 18 19 18 17 16 16 16 16 16 16 16 16 16 16 16 16 16 16 17 17 17 17 17 17 18 18 18 18 19 19 19 19 19 19 19 19 19 19 19 19
23 23 23 23 22 22 22 22 22 22 21 21 21 21 21 22 22 22 22 22 22 22 22 23 23 23 22 21 20 20 21 20 20 19 18 18 17 17 17 16 16 16 16 15 16 17 18 19 18 17 17 16 16 16 16 16 16 16 16 16 16 16 16 17 17 17 17 17 17 18 18 18 18 19 19 18 18 19 19 18 18 18 18 18 18
22 22 23 22 22 22 21 21 21 21 21 21 21 21 21 21 21 21 21 21 21 21 21 22 22 22 22 21 20 20 20 19 19 18 18 17 17 17 17 16 15 15 15 15 15 16 17 18 18 18 17 17 17 16 16 16 16 17 17 17 17 17 17 17 17 17 18 18 18 18 18 18 18 18 18 18 18 18 18 18 18 18 18 18 18
22 22 22 22 21 21 21 21 20 20 20 20 20 20 19 19 19 19 19 19 19 19 20 20 21 21 21 20 19 19 18 18 18 17 17 16 16 16 16 15 15 15 15 15 15 15 16 16 16 16 17 16 17 17 17 16 16 17 17 17 17 17 17 17 17 18 18 18 18 18 18 18 18 18 18 18 17 18 18 18 18 18 18 18 18
21 21 21 21 21 20 20 20 19 19 19 18 18 18 18 17 17 17 17 17 17 18 18 19 19 20 20 19 18 17 17 17 17 16 15 16 16 15 15 15 15 15 15 15 15 15 15 16 16 16 16 16 16 16 16 17 17 17 17 17 17 17 17 17 18 18 18 18 18 18 18 18 17 17 17 17 17 17 17 18 17 17 17 17 17
20 20 20 20 19 19 19 19 18 18 18 17 17 16 16 16 15 15 16 16 16 17 17 17 17 18 18 18 17 17 16 16 15 15 15 15 15 15 14 14 15 15 15 15 15 15 15 15 16 16 16 16 16 16 16 16 16 17 17 17 17 17 17 17 18 18 18 18 17 17 17 17 17 17 17 17 17 17 17 17 17 17 17 17 17
19 19 19 19 19 18 18 18 17 17 17 17 16 15 15 14 14 14 14 14 14 14 15 15 15 16 16 16 16 15 15 15 15 15 15 15 15 14 14 14 14 15 15 15 15 15 15 15 15 15 16 16 16 16 16 16 16 17 17 17 17 17 17 17 17 17 17 17 17 17 17 17 17 17 17 17 17 17 17 17 17 17 16 16 16
17 17 17 17 17 17 17 17 17 16 16 16 15 14 14 13 13 12 12 12 11 11 12 12 13 14 14 15 15 15 15 15 15 15 15 15 14 14 15 15 14 14 15 15 15 15 15 15 15 15 16 16 16 16 16 16 16 16 17 17 17 17 17 17 17 17 17 17 17 17 17 17 17 17 16 16 16 16 16 16 16 16 16 16 16
17 17 16 16 16 16 16 16 16 15 15 14 14 14 13 12 12 11 11 10 10 10 9 10 10 11 11 12 13 14 14 15 15 15 15 15 15 15 15 15 14 14 14 15 15 15 15 15 15 15 15 15 15 15 16 16 16 17 17 17 17 17 17 16 16 16 16 16 16 16 16 16 16 16 15 15 15 15 16 16 16 16 16 16 16
Height
734 738 741 745 748 751 754 757 760 764 766 769 771 773 775 777 779 781 783 785 787 789 790 792 794 796 798 800 801 803 805 807 808 810 812 814 815 817 818 819 821 822 823 824 825 827 827 828 830 830 832 833 833 834 834 835 836 836 837 838 839 840 841 842 842 842 842 842 842 842 843 843 844 845 846 847 846 846 847 848 847 847 848 848 847
728 732 735 739 742 745 749 752 756 759 762 765 767 769 771 773 775 777 779 781 783 785 786 788 790 793 794 796 798 800 802 803 805 807 808 810 812 813 815 816 817 819 820 821 822 823 824 825 826 828 829 830 831 832 832 833 834 835 835 836 837 838 839 840 840 841 841 841 841 841 841 842 842 843 844 845 845 845 845 845 845 845 846 846 846
721 726 730 733 737 741 744 748 751 754 757 760 762 764 766 768 771 773 774 777 779 781 782 785 787 789 791 793 795 797 799 800 802 803 805 807 808 809 811 812 813 815 816 817 819 820 821 822 823 824 826 827 828 830 830 831 831 832 833 834 835 835 836 838 838 839 839 839 839 840 840 840 841 841 842 843 844 844 844 844 844 844 843 844 844
717 721 724 728 732 736 739 743 746 749 752 754 756 759 761 764 766 768 770 773 775 777 779 781 783 785 787 789 791 794 795 797 798 800 801 802 804 806 807 808 809 810 812 814 815 817 818 818 819 821 822 823 825 826 827 828 829 830 831 832 833 833 834 835 836 837 837 837 838 838 838 838 839 839 840 840 841 842 842 842 842 842 842 842 842
713 716 719 723 727 730 734 737 740 743 745 748 750 753 756 759 761 763 765 768 770 773 775 777 779 781 783 785 787 789 791 793 795 796 797 799 800 802 803 804 806 807 808 810 811 813 814 815 816 817 818 819 821 822 824 825 826 827 828 829 830 831 832 833 834 834 835 835 836 836 836 837 837 837 837 838 838 839 840 840 840 841 841 840 840
708 711 715 718 722 725 728 731 734 737 740 742 745 748 751 754 756 758 760 763 765 768 770 772 774 776 778 780 783 785 787 789 790 792 794 795 796 798 799 801 802 803 804 806 807 808 809 811 812 813 814 815 816 818 820 821 823 824 825 826 828 829 830 831 831 832 833 833 833 834 834 835 835 835 835 836 836 836 837 838 838 839 839 839 839
704 707 710 713 717 720 722 725 729 732 734 737 740 743 746 749 751 753 756 758 761 763 765 768 770 772 774 776 778 780 782 784 786 787 789 790 792 793 795 797 798 799 801 802 803 804 805 807 808 809 810 811 812 814 815 817 819 820 822 823 825 826 827 828 829 829 830 830 830 831 831 832 833 833 834 834 834 834 835 835 836 836 837 837 837
700 703 707 709 712 714 717 721 724 727 730 733 736 739 741 744 746 749 752 754 756 758 760 763 765 767 769 771 773 775 777 779 780 782 784 786 788 789 791 793 794 795 797 798 799 800 801 802 803 804 806 807 808 810 811 813 815 817 818 820 821 823 824 825 826 827 827 827 827 828 828 829 830 831 832 832 832 832 831 832 833 833 834 834 834
697 700 702 705 707 710 714 717 720 723 726 729 732 734 737 740 742 745 748 749 752 754 756 759 760 762 764 766 768 770 771 773 774 776 779 781 783 785 786 788 790 791 793 794 794 795 797 798 799 800 801 802 804 806 807 809 811 812 814 816 817 819 820 821 822 823 824 824 824 825 826 826 827 828 829 829 829 829 829 830 830 831 832 832 832
693 696 698 700 704 707 711 714 716 719 722 724 727 730 733 736 739 741 744 746 748 750 753 755 756 758 759 761 763 764 766 767 768 771 774 776 779 781 782 784 785 787 789 790 790 791 792 793 794 795 797 798 800 801 803 805 806 808 810 811 812 814 816 817 818 819 820 821 821 822 822 823 823 824 825 826 826 827 827 827 828 829 830 830 830
689 692 694 697 701 704 707 710 713 716 718 721 724 727 729 732 735 737 740 742 745 747 749 751 752 754 755 756 758 759 760 761 762 765 768 771 774 776 778 779 781 783 784 785 785 786 787 788 789 790 792 793 794 796 798 800 802 804 806 807 808 809 811 812 813 815 817 817 817 818 818 819 820 821 822 823 824 825 824 825 826 826 827 827 827
685 688 691 695 698 700 703 706 709 712 715 718 721 724 727 729 731 734 736 738 741 743 745 747 748 750 751 752 753 754 755 755 757 759 762 765 768 771 773 775 776 777 779 779 780 780 781 782 783 784 785 786 788 790 792 795 797 798 801 802 803 804 805 807 808 810 812 813 814 814 814 815 816 817 818 819 821 822 822 823 823 824 824 824 824
681 685 688 692 693 695 699 702 705 708 711 714 718 720 723 725 727 730 732 734 737 739 740 742 743 745 746 747 749 749 750 750 751 753 756 759 762 766 768 770 771 772 773 774 774 774 775 776 777 778 779 779 781 784 786 788 791 793 796 798 799 800 801 802 803 805 807 809 809 810 810 811 812 813 814 816 817 819 820 820 820 821 821 821 822
678 681 684 687 689 692 695 697 700 703 707 710 714 716 718 720 722 726 728 731 733 734 735 737 738 740 741 742 744 744 745 745 746 748 751 753 757 760 764 766 766 767 768 769 770 770 770 772 772 773 774 774 776 779 781 783 786 788 791 792 794 795 796 797 799 801 802 804 804 805 806 807 808 810 811 813 814 815 817 817 818 818 818 819 820
674 678 681 683 685 688 691 693 697 700 703 707 709 712 714 716 718 722 724 726 727 729 731 732 733 735 736 738 739 739 740 741 742 743 746 749 753 756 759 761 762 762 763 764 764 765 766 767 768 768 770 770 771 773 776 779 781 783 786 788 789 791 792 792 794 796 798 799 800 801 803 804 805 806 808 809 810 812 814 815 815 815 816 817 818
671 673 676 679 682 684 687 691 694 697 700 703 705 707 709 711 714 717 719 722 723 725 726 727 728 730 732 733 734 734 735 736 737 739 741 745 749 752 755 757 758 758 758 758 759 759 760 761 762 763 764 765 766 768 771 775 777 779 781 783 785 787 787 788 789 791 793 795 796 798 800 801 801 803 805 806 807 809 811 812 813 813 814 815 815
667 669 672 675 678 681 684 687 690 693 696 698 699 702 704 707 710 713 716 718 719 720 722 723 724 726 727 728 729 729 731 732 733 735 737 740 744 747 749 751 753 753 753 753 754 753 753 754 755 757 759 759 760 762 766 770 772 774 776 778 781 782 783 784 786 787 789 791 793 795 797 797 798 799 801 803 804 806 808 809 810 811 811 812 812
664 666 669 672 675 679 681 684 686 689 691 693 695 698 701 704 707 709 712 713 715 716 718 720 721 722 723 724 725 726 727 728 729 731 732 735 738 741 743 745 746 745 745 746 747 747 747 748 749 752 753 754 754 756 760 764 766 768 770 772 774 776 777 780 781 783 785 788 790 792 793 794 795 796 798 800 802 804 805 806 807 808 808 809 809
661 664 667 670 673 676 679 682 684 686 688 690 693 696 699 702 704 706 708 710 711 713 715 716 717 717 718 720 721 722 723 723 724 725 727 730 732 735 737 739 738 737 737 739 740 741 742 744 745 746 749 751 750 750 753 757 759 761 763 765 767 768 770 774 776 777 780 783 785 787 789 790 792 793 795 797 799 801 802 803 804 805 806 806 806
659 662 665 668 671 674 676 679 681 683 686 688 691 694 696 698 701 703 704 706 708 709 710 711 712 713 714 715 716 717 718 719 720 720 722 724 726 729 731 732 731 731 733 735 735 735 736 739 740 740 743 747 747 745 748 751 753 755 756 757 757 760 764 768 771 772 774 777 780 783 785 787 789 791 792 794 796 798 799 800 802 802 803 804 804
658 660 663 665 667 670 673 676 678 680 683 686 688 691 693 695 697 699 701 703 704 706 707 708 708 709 710 711 712 712 713 715 715 716 717 719 720 723 725 725 726 729 731 731 729 728 729 732 733 732 735 740 742 741 742 745 748 751 751 750 751 755 759 763 766 768 770 773 776 779 782 784 785 787 789 790 792 794 795 796 798 799 800 802 801
656 658 660 662 665 667 670 673 675 678 681 683 685 688 690 692 694 696 698 700 701 702 704 705 705 706 706 707 708 708 709 711 711 712 712 713 715 717 718 720 723 727 728 726 723 722 722 725 727 727 728 732 735 736 737 739 743 746 747 747 749 752 756 759 762 764 767 769 772 775 777 779 781 782 784 786 787 789 791 792 794 796 797 798 797
655 657 659 661 663 665 668 671 673 676 678 680 683 685 687 690 692 693 695 697 698 699 701 702 703 703 703 704 704 705 706 708 708 708 708 709 711 713 714 717 720 722 722 719 717 717 717 718 720 722 722 725 729 730 732 734 737 740 743 745 747 750 754 757 759 760 763 766 768 770 772 774 776 777 779 780 782 784 786 788 790 792 794 795 795
655 656 658 660 662 664 667 669 672 674 676 678 681 683 685 688 689 691 693 694 696 697 698 699 700 700 701 701 701 702 704 705 705 705 705 706 707 709 711 713 715 716 716 714 714 715 715 715 716 716 717 719 723 725 727 728 730 734 739 742 744 746 750 753 754 756 759 761 763 765 768 770 771 772 773 775 778 780 782 785 787 789 791 793 794
655 656 658 659 661 664 666 668 670 672 675 677 679 681 684 686 687 689 691 692 693 694 695 696 697 697 698 699 699 700 701 702 702 702 701 702 704 705 707 708 710 712 712 711 711 712 713 714 714 714 713 714 718 722 724 724 726 731 736 740 741 742 746 748 749 751 754 756 759 762 765 767 768 769 771 773 775 777 779 782 785 786 788 791 793
655 657 658 659 661 663 665 667 669 671 674 675 677 680 681 683 685 687 688 689 691 692 693 694 694 695 695 696 697 698 699 700 700 700 699 700 700 702 703 704 706 707 707 706 706 708 710 710 711 712 710 711 715 719 721 723 726 730 733 736 737 738 740 742 743 745 748 751 756 759 762 764 766 768 769 771 773 775 777 779 782 783 785 788 791
656 657 658 659 661 662 664 665 667 670 672 674 675 677 679 680 682 684 685 686 687 688 690 691 692 692 693 693 694 695 696 697 698 698 698 697 697 698 698 698 700 701 701 700 701 704 705 706 708 709 709 709 711 714 717 720 724 726 729 732 733 733 734 736 738 740 743 748 752 755 759 762 764 766 767 770 773 774 775 777 780 782 784 787 789
656 657 658 659 661 662 663 665 666 668 670 672 673 674 676 678 680 681 683 684 684 686 687 689 690 690 691 692 693 693 694 694 695 696 697 698 698 698 696 695 695 695 694 694 695 698 700 701 702 704 706 707 709 711 713 715 718 720 723 726 729 730 731 732 734 736 739 743 747 751 755 758 761 762 764 768 772 773 774 776 779 781 784 785 786
656 658 659 660 661 662 663 665 667 667 668 671 673 674 676 678 679 680 682 683 684 686 687 688 690 690 691 693 693 693 694 694 694 694 695 695 696 697 696 696 694 692 690 691 692 694 696 696 696 698 703 705 705 706 708 710 712 714 716 719 723 724 724 725 727 730 733 738 741 745 749 753 756 759 762 765 768 771 773 776 779 781 782 783 784
659 660 661 662 664 664 665 667 668 668 669 671 674 676 678 679 680 681 683 684 685 686 687 689 690 690 691 693 693 694 694 694 693 692 691 690 690 690 690 690 690 689 688 689 690 691 691 690 688 690 696 700 699 698 698 700 703 705 707 711 715 716 716 717 719 722 726 731 735 739 744 748 751 755 759 762 765 768 771 774 778 779 780 781 781
661 662 663 665 666 667 668 669 670 671 671 673 675 677 679 680 681 682 684 685 686 687 688 688 689 690 691 691 692 692 692 691 690 689 687 686 685 683 682 682 682 683 684 685 687 686 685 684 683 683 687 691 690 686 684 685 688 692 696 701 705 707 707 708 711 715 719 724 729 734 739 743 747 751 755 759 762 764 768 772 776 778 778 778 779
663 664 665 667 667 668 669 671 672 673 674 675 676 677 679 682 683 684 685 686 687 687 688 688 689 689 690 690 690 690 689 688 687 686 684 682 680 679 677 675 673 674 677 681 680 676 674 674 675 674 673 673 672 671 671 671 672 676 682 688 693 696 698 700 703 707 711 716 722 728 732 737 742 746 752 756 758 761 765 769 772 775 776 776 776
665 666 667 668 669 670 671 673 674 675 676 677 678 679 680 681 683 685 686 686 687 688 688 689 689 689 690 690 690 689 689 687 686 684 682 680 677 675 672 669 667 667 670 673 671 666 663 663 663 661 658 656 656 659 661 660 662 665 669 674 680 686 690 694 698 701 705 710 716 722 726 731 736 741 747 751 755 758 762 766 769 771 772 773 773
668 669 669 670 671 672 673 674 676 677 678 679 680 681 682 683 683 684 685 686 686 687 688 688 689 690 690 690 689 689 688 686 684 682 680 677 675 672 668 664 660 660 662 663 661 658 656 654 652 650 648 646 647 650 652 653 656 660 663 668 674 680 686 690 694 697 700 705 710 715 720 725 730 735 742 747 751 755 759 762 765 767 768 768 769
671 672 672 672 673 674 675 676 678 679 680 681 681 682 683 684 685 685 686 686 686 687 687 688 689 689 690 689 689 688 687 685 682 680 677 675 672 668 664 660 655 653 653 653 652 649 648 646 643 639 637 636 636 637 640 644 650 654 658 663 669 675 680 685 689 693 697 702 706 709 714 720 725 731 738 743 747 752 756 759 761 761 763 764 765
673 674 675 675 676 677 678 679 680 681 682 682 682 683 683 684 684 685 685 686 687 687 687 688 688 689 689 688 688 686 685 682 680 677 674 672 669 666 662 658 654 650 647 646 645 643 640 637 633 629 626 624 622 621 624 629 636 641 647 652 658 664 670 676 681 686 692 700 705 707 709 715 722 728 734 740 744 749 754 757 757 757 758 760 761
675 676 677 678 678 679 680 681 682 682 682 682 682 683 683 683 684 685 685 686 687 687 687 687 688 688 687 687 686 685 682 679 677 674 672 670 667 663 660 656 652 648 644 641 639 637 633 629 626 622 618 614 612 611 612 615 620 628 636 643 649 655 662 670 678 684 689 695 700 703 707 713 719 726 732 737 741 746 751 753 753 753 754 755 757
679 679 679 680 680 680 681 682 682 682 682 682 682 682 683 683 684 685 685 686 686 687 687 687 687 687 687 686 686 683 680 677 674 672 670 668 665 661 657 653 649 644 639 635 633 630 625 621 619 617 613 610 608 606 606 607 612 621 633 643 648 651 656 666 676 683 688 692 696 699 704 711 717 724 730 735 739 743 747 748 748 748 750 752 754
681 681 681 681 680 680 680 681 681 681 681 681 682 683 683 684 685 685 685 685 685 686 686 686 686 686 687 686 685 683 680 677 674 672 670 667 664 660 656 652 647 642 636 632 627 622 617 613 611 610 608 605 603 602 602 604 609 617 628 639 647 652 656 664 673 680 686 691 694 697 703 710 716 723 728 733 737 740 742 743 744 745 747 750 752
681 682 682 680 680 680 680 680 681 682 682 683 683 683 683 684 685 686 685 684 685 685 685 685 685 685 686 685 684 683 681 678 675 673 671 668 664 661 657 653 649 643 637 630 621 614 610 608 607 606 604 600 599 600 600 599 604 615 626 635 642 649 656 665 674 682 686 690 693 696 702 709 716 722 727 732 736 737 738 739 742 744 745 748 751
682 682 682 681 680 680 680 681 683 684 684 685 685 684 684 685 685 685 685 684 684 683 682 682 683 684 684 684 683 683 681 678 675 673 671 669 666 662 658 655 650 645 638 630 620 612 610 609 606 603 601 599 599 602 605 605 608 618 628 635 641 648 655 663 674 683 688 692 695 699 704 709 715 720 726 730 733 735 736 738 741 742 744 747 750
683 683 682 682 682 682 683 684 685 686 686 686 685 685 685 685 685 686 685 685 684 683 683 683 683 683 683 683 682 682 680 677 675 673 671 669 667 663 660 656 652 647 641 634 625 616 611 610 608 605 603 602 601 601 607 614 620 626 632 638 645 652 657 664 674 683 688 692 697 702 706 711 715 720 725 729 731 733 735 737 739 741 743 745 747
684 684 684 684 685 685 687 687 687 687 687 686 686 686 686 686 686 686 685 685 685 684 683 683 682 682 682 681 681 680 678 677 675 673 672 670 667 664 661 658 654 650 644 639 633 623 615 612 613 613 613 614 614 610 611 618 626 633 640 647 653 658 663 669 677 684 688 693 698 703 708 711 715 720 724 727 730 732 734 736 738 740 742 744 746
686 686 686 686 686 687 689 689 689 688 688 687 687 687 687 687 687 687 686 686 685 685 684 683 682 681 681 680 680 679 677 676 675 674 672 670 668 665 662 660 657 653 649 644 641 634 625 617 617 620 624 629 631 629 629 632 637 642 648 655 660 664 669 675 681 686 690 694 699 704 708 712 716 720 723 726 729 731 733 735 737 739 741 743 745
690 689 688 688 688 689 691 691 691 690 689 689 688 688 688 688 688 688 688 687 687 686 685 683 682 681 681 680 679 679 678 677 676 675 674 672 669 666 664 661 659 657 654 650 647 643 637 629 625 627 633 639 643 644 647 651 654 655 657 660 664 669 674 680 684 688 692 696 700 704 708 712 716 719 722 725 728 730 732 734 736 738 740 742 743
693 692 690 689 690 691 692 693 693 692 691 691 691 691 692 692 692 691 691 690 689 688 686 684 683 682 681 680 680 679 678 677 676 675 674 673 670 668 666 664 661 659 658 656 653 649 646 642 637 636 639 644 649 653 658 662 664 665 665 667 670 674 679 683 686 690 693 697 701 705 709 713 716 719 722 724 727 729 731 733 735 737 739 741 742
695 694 692 692 693 694 695 696 695 695 695 695 695 695 696 696 695 695 694 693 692 690 688 687 685 683 682 682 681 680 680 679 678 677 676 674 672 670 668 666 664 662 660 660 659 656 653 652 650 649 649 651 654 659 664 668 670 671 672 673 675 678 681 684 688 691 695 699 702 706 710 713 716 719 721 723 726 729 730 732 734 736 739 740 741
699 697 696 696 697 698 698 699 699 698 698 698 699 700 700 699 699 698 696 695 694 692 691 690 689 687 685 684 683 682 681 680 679 678 677 675 674 672 670 668 667 665 663 662 663 662 661 660 659 659 658 659 661 665 669 672 674 675 675 677 678 680 683 686 689 693 696 700 704 707 710 713 716 718 721 723 725 728 730 732 733 735 737 739 740
703 702 701 700 701 701 701 701 701 701 701 701 702 703 703 702 701 700 698 697 696 695 694 693 692 690 688 687 685 684 683 681 680 679 679 677 675 674 673 671 670 668 666 666 667 667 666 666 666 666 666 667 668 671 673 675 677 677 678 680 681 683 685 688 691 694 698 701 705 708 711 714 716 718 721 723 725 727 729 731 733 734 736 738 739
707 706 705 705 705 705 705 704 704 704 704 705 706 706 706 705 703 703 701 700 699 699 698 697 696 694 691 690 688 686 684 683 682 681 680 679 678 677 676 675 674 672 670 670 671 671 670 670 670 671 672 672 674 675 677 678 679 681 682 683 685 686 688 690 693 696 700 703 706 709 712 714 717 719 721 723 726 728 729 731 732 733 735 736 737
710 710 709 710 710 709 709 709 708 709 710 710 710 709 708 707 706 706 705 704 703 702 702 701 699 697 695 692 690 688 686 685 684 683 682 681 681 680 679 679 678 677 675 674 674 675 675 674 674 675 677 677 678 679 681 682 683 684 685 686 688 689 690 693 695 698 701 704 707 710 712 715 717 720 722 724 726 728 729 730 731 732 733 734 735
Wind_Speed
36 35 35 35 34 34 34 34 33 31 29 29 28 28 27 28 27 26 25 24 24 24 24 24 24 24 24 23 23 24 24 24 23 23 23 22 21 19 20 21 22 21 20 20 20 19 20 20 19 18 18 16 15 14 14 14 15 14 14 14 14 13 13 12 10 9 9 9 9 8 8 9 10 11 10 10 11 12 12 11 12 13 11 12 14
37 36 35 35 35 35 34 33 33 32 31 30 30 29 27 28 27 26 25 25 25 25 25 25 25 24 24 23 24 24 24 25 24 24 24 23 22 21 21 23 23 23 22 22 22 21 20 21 21 20 19 18 17 15 15 15 15 16 15 15 14 14 15 15 12 11 10 10 11 10 9 9 10 11 12 12 11 11 12 12 13 13 12 12 13
38 37 36 35 35 35 34 33 32 33 32 32 31 31 29 28 28 28 27 26 26 26 26 25 25 25 25 24 24 24 24 25 25 24 25 24 24 22 22 23 25 25 24 24 23 22 22 22 22 21 20 20 19 18 16 16 16 16 16 16 15 15 15 16 14 12 11 11 12 12 11 11 12 11 12 12 12 12 12 12 13 13 13 13 13
36 36 35 35 35 35 34 33 33 34 34 33 33 32 31 29 29 29 29 27 26 26 26 26 25 25 25 25 24 24 24 25 25 25 25 25 24 24 24 24 25 26 25 25 24 24 23 23 23 23 22 21 21 20 18 18 17 17 17 16 16 15 15 16 16 14 12 11 12 12 12 12 13 13 12 13 13 13 13 13 13 14 14 14 14
35 35 35 35 35 35 34 34 34 35 35 34 34 34 33 31 29 29 30 29 29 27 26 26 26 26 26 26 26 26 25 26 26 26 25 25 25 25 25 25 26 26 26 26 25 25 25 24 24 23 23 22 22 21 21 20 19 18 17 17 17 16 15 15 16 15 14 12 12 12 12 12 12 13 13 14 14 14 14 14 14 15 14 15 14
34 34 34 34 34 35 35 35 35 36 36 35 34 34 34 32 30 29 29 30 30 28 27 27 27 27 27 27 27 27 27 27 27 27 26 25 26 26 25 25 26 26 26 26 26 26 26 25 24 24 25 24 23 22 22 22 21 19 19 18 17 17 16 16 15 16 15 14 13 12 13 13 13 13 14 15 15 14 14 14 15 16 15 16 15
33 33 33 33 34 35 35 36 35 35 36 35 34 33 33 33 32 30 29 29 29 29 29 28 28 28 28 28 28 28 28 28 28 28 28 27 27 27 26 25 26 26 26 26 27 26 26 26 25 25 26 26 25 23 23 23 22 21 21 19 18 18 17 17 16 16 16 15 15 14 14 14 14 14 14 15 15 15 14 14 15 16 17 17 16
32 32 32 32 32 34 35 35 35 35 35 34 33 33 32 33 33 31 29 29 29 30 30 29 28 28 29 29 29 29 30 30 30 30 29 28 28 27 27 26 26 26 26 27 27 26 26 26 26 26 26 27 26 25 24 24 23 22 22 21 20 19 18 17 17 17 16 16 15 15 14 14 15 15 14 15 16 16 16 15 15 15 16 17 17
32 31 31 32 32 32 32 32 33 34 33 33 32 32 32 32 32 31 30 29 29 29 29 29 29 29 29 30 30 30 30 31 31 31 30 29 28 28 27 27 27 27 27 27 27 27 26 26 26 27 27 28 28 27 25 25 24 23 23 23 22 21 20 18 17 17 17 17 16 15 14 15 15 15 15 17 17 16 15 15 15 14 14 14 16
31 31 31 31 30 29 30 31 31 31 31 32 32 31 31 31 30 31 31 29 28 28 28 29 29 29 29 30 30 30 30 31 33 35 34 31 29 28 27 27 27 27 27 27 27 27 27 27 27 27 28 29 30 31 30 28 26 24 23 24 24 23 21 20 19 18 18 17 17 16 15 15 16 17 17 18 18 16 15 15 15 14 13 12 13
30 31 30 29 28 27 28 29 29 29 30 30 30 30 30 30 30 30 30 30 29 27 27 28 29 29 29 29 30 30 30 32 35 38 39 36 32 29 28 28 27 28 28 28 27 27 28 28 27 28 30 32 33 34 34 33 31 29 25 24 26 25 23 22 21 20 20 18 17 16 16 16 17 18 18 18 17 17 16 15 14 13 12 12 11
29 30 29 27 27 28 28 28 28 28 29 28 28 28 28 28 28 28 29 30 29 28 27 28 29 29 28 28 29 30 30 32 36 39 41 42 39 32 28 28 28 28 29 29 29 28 28 29 29 28 30 33 35 36 37 36 34 34 31 28 27 28 27 25 23 22 22 20 19 18 17 17 17 18 19 18 17 17 17 15 14 14 12 12 11
28 29 29 28 28 29 28 28 28 28 28 28 27 26 27 28 29 29 28 28 28 29 29 29 29 30 29 29 29 30 30 32 36 40 42 44 44 39 31 27 28 29 30 31 30 30 30 30 30 29 29 33 36 36 37 39 37 36 35 33 31 31 31 29 26 25 24 22 20 20 20 18 17 19 19 17 16 17 16 15 14 14 13 12 12
27 28 29 29 28 28 28 29 29 28 28 28 27 27 28 29 30 29 27 28 29 30 30 29 29 30 31 30 30 30 30 31 35 40 42 43 45 44 36 28 28 30 31 32 31 30 30 30 30 30 29 31 36 35 33 36 39 38 38 37 35 33 34 33 31 30 29 25 21 20 22 21 19 18 18 17 16 17 16 16 15 14 13 12 11
26 27 28 29 28 28 28 28 27 26 26 27 28 29 29 29 29 28 28 28 29 29 29 30 30 30 31 31 30 30 30 32 34 38 41 42 44 45 40 31 28 29 30 32 31 30 31 31 30 30 29 30 36 37 32 31 34 37 38 36 33 31 32 34 34 34 34 32 26 20 19 21 21 20 18 17 17 17 16 15 13 11 10 9 9
27 27 28 29 29 28 27 27 25 25 26 27 28 29 29 29 28 28 27 27 27 28 28 29 30 30 30 30 31 31 31 32 34 36 39 41 42 45 43 35 29 29 29 31 32 31 31 32 32 31 30 29 34 38 36 30 28 31 33 31 30 28 29 31 33 34 35 35 32 24 19 19 21 21 21 19 17 16 15 13 12 10 8 9 10
27 27 27 28 28 27 27 27 26 27 27 28 29 30 29 28 27 27 27 26 27 27 27 28 28 28 29 30 31 31 30 32 35 36 38 40 41 45 45 37 31 31 30 30 32 32 34 35 33 32 31 31 33 38 39 34 28 27 28 27 26 25 25 26 29 32 34 34 33 29 24 23 23 22 23 22 19 17 16 15 15 13 11 9 10
27 27 26 26 27 26 27 27 27 27 28 28 28 27 26 26 25 25 25 26 26 26 25 25 25 26 28 30 30 30 29 30 34 36 38 40 42 46 45 37 32 33 33 32 33 34 35 36 36 34 33 33 34 37 40 38 32 28 28 26 25 25 25 23 25 29 31 30 30 30 29 27 26 23 22 23 22 20 18 16 15 14 12 11 11
26 26 25 24 24 24 25 25 25 26 26 26 25 24 24 24 23 23 24 24 24 24 24 24 24 25 26 27 29 30 29 30 33 36 38 40 42 46 44 37 34 36 34 32 32 33 35 37 39 39 36 34 35 38 41 42 36 31 29 28 26 26 27 25 24 27 31 30 28 30 30 29 28 24 22 23 24 23 20 16 14 13 13 13 12
23 24 23 22 22 23 23 24 25 25 24 24 23 23 23 22 22 23 23 23 23 23 23 23 24 24 24 25 28 30 30 30 32 35 38 40 43 46 43 36 34 34 31 30 30 31 33 35 39 42 41 37 37 38 41 43 40 34 31 31 30 29 29 27 24 26 31 31 27 27 28 27 25 23 21 22 25 25 22 18 16 15 14 14 13
21 22 22 22 23 23 23 24 24 24 23 22 22 22 22 22 22 22 21 21 20 21 21 22 22 23 23 24 25 27 29 30 31 33 36 40 44 47 44 38 34 32 30 30 31 30 32 35 38 43 45 43 41 40 41 43 43 37 33 33 34 31 29 29 26 25 28 29 25 23 24 25 24 24 23 22 22 24 23 21 18 17 16 16 17
19 20 21 21 22 22 21 22 22 21 21 21 20 20 20 20 20 20 19 19 19 20 20 20 20 21 21 23 24 25 26 27 29 32 35 38 43 48 47 40 34 32 31 32 33 31 32 34 36 39 44 48 47 44 42 43 44 41 36 34 34 33 30 29 27 26 25 25 24 23 24 25 25 27 27 24 21 21 21 21 20 19 19 20 18
17 18 18 18 19 19 19 19 18 18 19 19 19 18 18 19 19 19 19 18 18 19 19 20 20 20 20 22 24 25 24 25 27 30 33 36 40 45 48 44 39 36 34 34 33 32 32 34 36 38 42 49 52 49 44 43 45 45 40 34 33 35 32 28 28 28 27 26 25 24 25 26 25 26 27 26 23 21 20 20 19 20 20 19 15
13 15 15 16 16 16 16 17 17 16 16 17 18 17 17 17 17 17 17 17 17 17 18 19 20 19 19 21 22 22 22 23 26 29 32 35 37 41 45 47 45 42 39 36 33 30 30 32 35 37 41 46 52 53 49 45 46 47 43 35 33 36 34 29 28 29 27 26 25 24 25 27 26 25 26 25 23 22 21 19 18 19 19 16 12
11 12 13 14 14 14 14 14 15 14 14 15 16 16 16 16 16 16 16 16 17 17 17 18 18 18 19 20 21 21 21 22 24 27 29 31 35 38 42 46 49 48 45 42 37 33 33 33 32 34 39 44 50 54 52 47 46 47 43 37 35 38 37 31 28 29 27 25 24 23 25 27 25 24 24 23 22 21 21 20 20 20 18 15 13
9 9 10 11 12 13 13 13 13 13 13 13 13 13 13 14 14 15 15 16 16 16 16 16 16 17 18 19 20 20 20 20 21 23 24 27 31 34 38 42 47 49 51 50 45 40 39 38 34 32 36 42 47 51 51 48 45 45 44 40 36 39 38 32 29 29 27 24 24 25 25 25 24 23 22 21 20 20 22 22 20 18 15 15 15
9 8 9 9 10 11 11 11 11 12 12 12 12 13 13 13 14 14 15 15 16 16 16 15 15 16 17 18 18 19 19 19 20 21 20 21 25 32 37 42 46 49 53 55 53 47 45 43 39 35 34 39 45 49 50 49 46 45 46 43 38 36 38 35 32 31 29 26 25 26 24 23 23 22 21 20 17 17 21 21 18 16 16 17 16
9 9 9 8 7 8 9 9 9 11 12 11 8 8 9 11 11 9 7 7 8 9 11 12 12 13 14 13 13 14 14 16 16 15 12 10 13 21 29 37 45 50 54 57 57 54 49 43 37 32 31 36 42 44 44 44 45 45 47 47 42 37 37 36 32 31 32 29 27 26 26 25 23 20 20 21 18 15 18 19 18 17 19 19 16
9 9 8 8 7 6 8 8 6 7 10 9 8 9 5 2 3 5 6 4 3 2 2 3 4 6 6 7 8 9 11 14 17 20 22 22 23 24 22 26 35 43 48 53 55 53 45 35 28 25 28 34 38 39 38 40 43 45 48 49 45 38 37 38 34 32 34 32 27 27 29 27 23 20 20 21 19 17 17 18 19 19 19 19 17
10 9 8 8 8 7 7 6 4 3 5 9 11 13 11 7 5 6 6 5 4 3 3 2 3 5 4 5 6 7 10 14 18 22 26 27 31 33 30 27 29 34 40 45 47 45 40 32 28 29 30 32 34 36 38 40 42 44 47 49 46 40 39 40 37 34 36 35 29 26 28 26 24 23 22 21 20 19 18 20 21 20 19 19 17
9 9 9 9 8 7 7 5 5 4 4 4 6 8 12 12 9 9 9 9 8 7 6 5 5 6 7 8 9 10 12 16 18 20 22 23 25 29 32 33 31 31 36 40 39 40 38 32 27 30 34 35 36 39 43 45 45 46 47 47 45 42 41 41 39 36 38 37 30 27 27 26 24 23 22 21 21 21 20 21 22 21 19 17 16
10 11 11 10 9 9 9 8 7 6 5 4 4 6 9 11 12 13 13 13 13 12 12 12 12 11 12 13 14 15 16 19 20 22 24 26 27 29 31 34 35 32 31 34 36 39 40 35 29 32 39 42 43 43 47 49 49 49 48 45 44 43 42 42 41 39 40 38 33 30 30 28 25 24 23 21 21 22 22 22 22 20 19 17 17
12 12 12 12 11 11 11 10 10 9 8 8 7 7 7 8 9 9 9 8 8 9 9 10 11 12 12 13 14 16 17 19 22 24 26 28 30 32 33 34 36 33 27 29 35 39 40 37 34 37 43 46 46 45 45 46 48 48 47 45 44 44 43 44 42 40 41 40 36 32 32 30 28 27 25 22 22 23 23 23 22 20 19 19 18
14 13 12 12 12 12 12 11 10 10 9 8 8 7 7 6 5 4 3 3 3 2 1 1 3 8 10 11 13 15 17 19 21 23 26 28 29 32 34 35 38 35 27 27 35 39 39 36 36 40 44 45 45 45 43 42 44 45 44 44 44 43 41 42 41 40 41 41 37 34 33 32 29 28 26 24 24 23 23 23 24 22 20 19 17
14 13 13 12 12 12 11 10 9 9 8 7 6 6 6 4 3 3 3 2 1 2 3 3 1 5 11 12 13 16 18 18 19 22 24 26 27 30 31 31 31 30 25 24 32 38 39 38 38 41 45 47 47 47 45 43 43 43 42 42 43 43 42 42 41 40 40 39 36 35 34 32 29 28 27 25 25 24 22 23 24 23 20 18 17
12 12 11 11 11 11 10 9 9 8 7 5 5 5 4 3 3 3 3 2 3 5 5 3 3 7 10 10 12 18 20 18 18 21 22 22 25 27 25 21 20 22 21 22 26 33 38 41 42 43 46 49 50 50 49 47 46 47 48 47 47 46 45 44 42 41 40 38 34 33 33 31 29 29 27 24 24 25 24 23 22 22 21 20 18
9 9 9 9 9 10 10 9 8 7 6 5 4 4 3 3 4 4 3 3 4 5 6 6 6 8 8 9 13 20 24 21 18 19 19 19 21 21 20 19 20 21 23 23 25 28 33 38 42 44 45 47 49 49 49 51 52 50 47 46 48 48 46 43 40 39 39 37 34 33 33 31 30 30 27 24 23 24 23 23 22 22 23 22 19
9 10 10 9 8 8 8 7 6 5 3 3 4 4 3 3 3 3 4 4 4 5 6 7 7 8 9 10 13 20 24 22 18 17 17 17 18 18 20 23 25 25 26 25 26 27 29 32 38 41 42 42 43 44 44 45 47 47 42 40 42 45 46 43 39 38 37 36 34 34 33 31 29 29 28 24 23 24 25 24 23 21 19 17 16
11 11 9 8 7 8 7 6 5 4 4 4 4 3 2 3 4 4 5 5 5 6 7 7 8 9 9 10 13 18 21 19 17 17 16 16 17 19 22 25 27 26 25 25 25 26 26 28 32 37 40 41 39 39 40 40 42 44 45 43 41 41 42 41 38 36 35 34 33 32 32 29 27 27 27 24 23 25 25 23 19 17 15 15 16
9 8 8 7 6 7 6 5 5 5 4 4 4 3 2 3 4 4 5 6 6 6 7 8 10 10 10 10 14 18 17 15 16 17 16 16 18 20 22 23 24 25 27 26 27 29 29 27 26 28 32 34 32 31 36 42 45 44 43 43 43 42 41 39 36 33 33 32 31 31 31 29 26 25 25 24 22 22 20 18 16 16 15 15 16
7 8 8 8 7 6 6 6 6 5 3 3 3 3 4 4 5 6 7 8 9 9 10 11 12 11 10 12 16 18 17 16 16 17 17 17 17 19 21 23 21 23 28 27 18 14 16 18 19 18 17 18 24 28 30 35 42 42 40 40 41 41 40 39 36 33 31 30 30 29 29 28 25 24 24 23 20 18 17 17 16 16 15 15 15
8 8 8 8 8 7 6 6 5 4 4 4 5 5 5 6 6 8 8 9 10 11 11 11 12 11 11 12 16 18 17 15 16 17 17 17 16 17 18 20 19 19 23 23 19 20 24 21 10 3 9 18 29 38 40 38 37 37 37 38 39 38 38 38 37 34 32 31 30 29 27 26 24 23 21 19 17 16 16 16 16 15 15 16 16
8 9 8 8 8 8 8 8 7 7 8 8 8 8 8 8 8 9 10 11 11 11 11 11 12 12 11 12 14 16 15 15 16 17 17 16 15 15 15 16 16 16 18 19 19 24 32 36 34 30 27 23 22 31 39 41 40 38 37 36 35 36 36 36 35 33 31 30 30 28 25 23 23 21 19 18 16 15 15 15 16 16 16 16 16
8 8 8 8 9 9 9 9 9 10 10 10 9 9 10 10 10 11 11 12 12 12 12 13 13 13 12 12 13 14 14 15 15 16 17 16 14 13 13 13 13 14 15 16 18 23 32 38 39 38 36 32 29 30 34 37 39 40 39 37 35 35 34 34 33 31 29 28 27 25 22 21 21 19 17 17 16 15 15 15 15 15 15 15 15
8 8 8 9 10 10 10 10 11 11 11 11 11 12 13 13 13 13 13 13 13 14 14 14 14 14 13 13 12 13 14 15 15 15 16 15 13 12 11 10 10 11 13 14 15 21 28 34 37 38 35 31 30 31 32 32 34 37 39 38 36 34 33 32 31 29 27 26 25 23 21 20 19 17 16 16 16 15 14 15 15 15 15 15 15
9 9 10 11 11 11 11 11 12 12 12 13 13 14 14 15 15 15 15 16 16 16 16 16 15 15 14 12 12 13 14 15 14 14 13 13 12 10 9 8 7 7 10 12 14 18 23 27 32 36 36 35 34 34 33 32 33 34 34 35 34 33 32 31 29 26 24 23 23 21 20 19 18 16 15 15 15 14 14 14 15 15 15 15 14
11 12 12 13 13 13 13 13 13 14 14 14 15 15 15 15 16 16 16 16 16 16 16 17 16 16 15 13 12 13 14 14 13 11 11 11 11 9 6 6 6 7 9 12 14 17 21 24 28 31 34 35 35 34 32 32 32 31 30 30 31 31 30 28 26 24 22 21 21 20 19 18 17 15 15 14 14 14 13 13 14 15 15 14 14
14 14 15 15 15 14 14 14 15 15 15 15 16 16 16 16 17 17 17 17 17 16 16 17 17 17 17 15 12 12 13 12 10 9 9 9 9 8 5 5 7 10 13 15 17 19 21 24 27 29 30 32 32 32 31 29 28 28 27 27 27 28 27 26 24 22 20 20 19 18 17 16 14 14 14 14 13 13 14 13 13 14 14 14 13
17 16 16 16 16 15 15 15 15 15 15 15 16 16 16 17 18 19 18 18 19 19 18 18 17 17 17 15 13 11 11 10 9 9 9 8 7 6 4 5 9 13 15 17 19 21 23 24 26 26 28 29 30 29 27 26 25 25 25 25 26 27 26 24 23 21 20 19 17 15 14 14 13 13 14 14 13 12 13 14 13 13 13 13 13
19 19 18 18 18 17 17 17 17 17 17 16 15 16 16 17 18 20 20 20 20 20 20 20 20 19 17 15 13 12 10 10 10 9 8 7 7 6 4 6 10 14 17 19 21 23 24 25 26 27 27 27 26 24 24 25 25 24 24 23 24 24 23 21 21 20 18 16 14 13 12 13 12 12 13 14 13 12 12 13 13 13 13 13 13
20 20 20 20 20 19 19 19 19 19 18 17 16 16 17 17 18 19 20 21 21 21 21 21 22 24 23 19 16 14 13 13 13 12 9 7 6 6 6 6 8 12 17 20 22 22 23 25 26 25 23 22 21 22 23 24 23 22 21 20 19 19 18 19 20 20 18 15 12 11 11 11 11 11 11 12 13 12 11 12 12 12 12 12 13
Wind_Direction
190 191 193 195 195 197 199 200 202 204 205 205 207 210 210 210 212 211 211 212 212 211 211 211 210 211 211 210 209 207 203 202 200 199 201 201 201 202 200 200 202 205 208 209 210 212 214 214 214 214 216 217 218 216 213 209 207 211 211 207 208 209 207 214 224 232 234 230 232 232 215 205 206 210 217 219 221 228 228 222 229 236 232 232 237
191 192 193 195 196 197 198 199 201 202 204 205 207 208 208 209 210 209 211 211 211 211 211 210 210 210 211 211 211 208 203 202 201 199 202 202 200 202 202 200 203 205 208 210 210 210 212 212 211 212 213 215 217 217 216 212 209 211 212 210 209 209 207 209 217 227 231 228 227 231 229 223 216 210 216 222 222 224 224 220 224 229 228 228 232
191 190 191 194 195 197 198 199 200 201 203 205 207 208 209 208 208 208 210 211 211 211 211 210 208 208 210 211 210 210 206 202 202 201 202 202 201 202 204 203 203 204 207 210 209 209 210 211 210 209 210 212 214 216 217 215 213 212 213 213 212 211 209 209 214 222 229 228 225 225 224 224 223 218 217 222 227 226 222 223 225 225 225 229 233
191 189 190 193 194 196 197 198 200 202 204 206 208 209 209 209 209 209 211 213 213 212 210 210 208 205 207 209 208 209 207 203 204 205 204 202 203 204 205 205 205 204 207 210 208 207 209 210 210 208 208 210 211 214 216 216 215 214 214 215 215 215 212 209 212 219 228 232 229 226 225 221 220 221 219 219 224 228 228 227 227 227 228 230 235
192 191 191 193 194 195 196 198 200 202 205 207 209 210 211 211 211 211 211 213 214 213 210 208 208 205 204 206 205 205 206 204 204 206 206 204 204 206 206 206 206 205 207 209 208 207 209 211 211 208 207 208 209 210 212 213 213 214 214 214 214 215 215 213 213 214 221 230 233 229 226 223 220 218 216 216 218 223 227 229 230 232 233 234 238
193 192 192 194 194 195 196 198 201 203 205 208 210 211 213 213 213 212 211 212 212 213 211 207 206 205 203 203 204 203 203 204 204 206 207 206 205 206 207 209 208 207 208 209 208 207 209 212 212 210 209 209 209 209 209 210 211 212 213 213 213 213 215 216 214 214 217 224 230 229 224 223 223 220 216 217 217 218 222 227 231 233 233 235 239
194 193 193 194 194 194 196 198 201 203 206 209 211 212 213 214 214 213 211 211 211 212 211 208 205 205 203 202 203 202 202 203 204 206 207 208 207 206 207 210 210 209 210 211 210 209 209 212 214 213 211 211 210 208 207 207 209 211 211 211 211 212 214 216 215 214 216 219 223 226 225 223 223 224 222 219 220 223 223 225 229 229 228 231 236
195 194 193 195 195 195 196 197 200 204 206 208 209 210 212 213 213 213 211 210 211 211 211 209 205 204 203 203 203 202 201 202 204 205 206 208 208 206 207 209 210 211 213 213 213 213 212 213 215 215 214 213 211 209 207 205 206 209 210 208 209 210 212 214 214 214 216 220 221 222 225 225 223 224 224 221 222 224 223 226 231 229 226 226 230
196 195 194 196 196 195 194 196 200 203 205 205 206 208 210 211 211 212 212 211 211 212 212 210 207 204 203 203 203 203 202 203 204 205 206 206 207 208 208 209 210 213 215 215 215 215 215 215 217 218 216 215 213 211 210 207 206 206 206 205 206 208 210 212 213 214 215 220 222 220 221 224 223 222 222 220 221 222 220 223 231 233 231 229 228
196 197 197 197 195 192 193 196 198 201 203 203 204 205 207 208 209 210 212 212 212 211 212 213 211 208 205 203 203 204 204 206 208 209 209 207 206 207 209 209 210 213 216 216 216 216 217 218 219 220 219 217 215 213 212 211 209 208 207 205 204 203 206 209 211 214 216 218 219 218 219 223 224 225 227 225 224 224 223 221 226 232 232 232 235
196 198 199 196 193 191 192 195 197 199 201 202 202 203 204 207 208 209 211 212 212 212 212 214 214 212 209 206 205 206 207 209 211 212 212 211 208 207 208 208 209 212 216 216 215 216 217 218 219 220 219 218 217 215 215 215 213 211 210 209 207 204 204 206 209 215 220 220 219 218 219 224 228 231 233 232 229 228 227 221 222 228 227 228 235
197 198 199 195 191 191 191 193 195 198 200 201 201 201 202 204 206 208 209 209 210 212 212 213 215 215 214 211 210 210 211 212 213 213 215 215 212 209 208 209 209 211 216 217 215 215 216 217 218 218 217 217 216 216 217 218 216 215 214 212 211 209 208 208 209 214 220 222 221 221 222 226 230 233 234 234 230 230 230 225 224 226 226 230 235
197 195 197 195 192 191 190 191 194 197 198 198 199 199 200 203 205 206 207 207 208 210 212 212 213 215 216 215 215 215 215 214 214 215 216 217 215 212 210 210 211 212 216 219 217 214 214 214 215 215 215 215 213 212 215 218 218 217 217 216 215 214 213 212 212 214 218 220 221 223 226 227 228 231 233 231 229 229 226 223 222 223 226 232 238
197 194 195 196 194 191 190 191 194 195 195 195 195 198 200 203 204 205 205 206 208 210 212 212 213 214 216 217 218 219 219 218 216 216 217 218 217 214 212 213 215 215 217 218 218 216 214 213 214 215 214 213 210 207 208 213 216 216 216 217 217 217 217 217 216 216 217 219 222 225 228 229 230 233 232 228 226 226 223 221 221 223 227 233 241
198 194 195 197 195 192 191 192 193 192 192 193 195 199 202 203 204 204 205 207 209 210 212 213 214 215 216 218 220 221 222 222 220 217 217 219 218 216 213 213 216 218 218 218 218 218 217 215 215 214 212 210 209 206 203 204 208 212 213 215 217 218 219 219 220 219 218 220 223 226 227 227 229 232 230 224 222 223 223 224 224 225 228 234 240
199 196 195 196 195 193 192 192 192 192 192 193 196 200 202 203 203 203 206 209 211 212 214 215 216 217 217 217 220 223 223 223 222 220 217 218 218 216 214 214 217 220 221 221 219 217 217 216 216 215 211 209 209 209 206 201 199 203 207 210 214 217 221 222 222 222 222 222 222 224 225 224 226 227 225 220 217 216 218 220 218 216 219 229 240
200 197 196 197 196 195 194 194 194 194 194 196 200 202 202 203 204 203 206 210 213 214 215 217 218 219 219 219 220 223 225 224 224 222 218 216 215 214 213 213 218 223 225 225 223 221 219 217 215 214 212 209 209 210 208 202 195 195 200 203 207 214 220 222 222 223 224 224 224 224 224 224 225 225 221 217 212 208 210 213 216 217 214 219 233
199 197 197 197 196 196 197 197 196 196 197 200 202 203 203 205 205 204 207 211 215 217 218 220 221 222 223 223 222 224 227 226 225 224 220 216 213 213 212 211 216 222 224 225 225 224 223 220 216 215 215 212 210 209 207 204 197 195 197 198 202 211 215 216 216 218 221 224 225 224 223 224 226 226 223 220 215 210 209 211 218 223 220 220 228
199 198 197 197 197 198 199 200 199 199 201 203 204 204 204 206 206 206 209 213 217 219 220 222 224 224 225 226 225 225 227 228 227 225 221 217 213 212 210 210 215 220 221 222 224 225 226 225 221 218 218 216 213 209 207 205 200 197 197 197 201 209 210 209 209 209 209 213 217 218 219 221 223 223 223 221 218 215 213 215 223 227 225 229 232
201 200 198 196 197 197 198 199 199 201 203 203 204 204 204 205 207 208 211 214 217 220 222 224 227 228 228 230 231 229 229 231 231 227 222 219 215 211 209 210 216 219 219 221 224 225 226 228 225 219 216 217 218 213 208 207 205 201 198 197 201 204 202 202 205 203 201 202 204 208 213 215 216 217 219 221 221 219 218 219 222 225 227 232 232
201 200 197 195 196 196 197 198 199 202 204 203 204 206 205 207 209 209 212 215 217 220 222 225 230 232 232 234 236 236 234 233 234 231 225 221 218 213 210 212 217 221 222 224 226 226 225 226 226 220 215 216 218 215 211 210 210 206 203 203 203 201 197 199 200 194 191 193 194 199 206 210 211 212 216 218 219 219 217 216 218 221 224 226 230
198 198 197 196 196 195 196 198 198 201 203 202 202 204 205 207 209 209 212 215 217 219 221 224 229 233 236 238 239 240 239 235 233 233 229 226 222 216 214 215 218 221 227 230 229 227 226 226 226 222 215 214 216 216 213 212 212 211 210 209 205 200 198 197 193 185 185 190 193 197 202 205 207 210 212 212 209 208 209 212 215 216 221 229 237
192 193 194 194 195 195 196 197 196 198 201 200 199 202 203 205 207 209 211 214 216 219 222 227 233 237 241 243 243 244 244 240 237 236 233 229 225 220 219 220 220 220 225 230 230 228 228 227 225 223 218 214 214 215 213 211 212 212 211 209 204 199 197 195 189 184 186 191 196 199 200 201 204 207 209 210 207 202 202 207 210 210 218 234 242
183 185 188 189 191 194 194 194 195 196 196 195 197 200 200 203 207 208 211 216 220 224 229 233 237 241 244 247 248 247 247 245 243 242 239 234 229 226 224 224 222 222 225 231 235 235 235 233 228 224 221 216 214 215 213 211 212 213 210 207 203 196 193 192 188 185 187 191 195 197 199 201 205 207 207 206 205 205 204 204 208 209 212 223 228
176 180 182 183 186 189 191 192 193 192 191 192 195 199 201 205 210 212 216 222 228 232 237 238 240 243 245 247 250 250 251 251 249 248 246 242 237 234 231 228 226 224 227 233 238 240 241 243 238 230 224 218 213 213 213 212 213 212 207 205 201 194 192 192 185 182 188 192 192 195 200 204 207 208 206 203 201 201 199 198 205 209 205 206 212
167 172 175 174 177 182 184 186 187 187 190 192 194 201 206 208 211 214 218 224 227 232 238 240 242 245 247 249 252 253 254 256 256 255 253 249 244 240 236 233 231 229 230 234 238 239 241 245 247 241 228 217 211 212 212 213 213 210 206 204 199 192 192 191 183 181 187 190 191 197 202 205 207 208 204 200 196 192 191 196 203 203 193 193 201
153 158 162 160 165 173 176 179 181 182 186 194 199 204 209 213 215 217 222 228 229 229 232 235 239 244 248 251 254 255 255 255 255 256 256 252 246 242 237 235 233 231 231 233 235 237 239 242 248 248 234 217 211 212 212 211 210 207 204 203 200 195 194 193 188 184 186 189 194 198 200 202 205 202 195 193 193 185 184 192 198 194 190 194 197
138 143 144 140 146 161 166 168 173 178 184 190 194 196 202 210 213 210 214 227 230 232 236 238 243 249 254 260 266 270 271 267 262 269 284 288 271 255 242 236 234 231 230 231 233 235 237 239 240 238 223 208 204 205 206 207 207 205 203 202 201 199 195 193 190 186 187 191 193 193 194 198 199 190 181 186 191 181 175 184 192 193 194 195 195
106 111 108 101 97 115 138 147 160 181 178 155 102 77 83 130 132 98 78 61 45 8 306 279 281 283 286 300 308 304 297 292 290 296 302 301 295 288 272 252 243 240 239 238 234 233 235 232 220 208 198 195 196 197 199 202 203 203 203 201 201 200 195 190 188 185 186 191 193 187 187 191 188 178 176 182 186 181 178 187 195 197 197 197 199
107 109 103 95 93 97 105 98 68 68 136 125 96 77 68 63 67 72 63 49 38 25 7 352 335 327 335 348 343 329 317 314 312 307 302 297 291 288 285 274 260 252 253 250 240 233 234 227 206 191 190 195 197 196 195 198 199 200 201 200 200 199 194 190 189 185 184 189 193 184 180 181 178 175 177 181 183 184 188 194 199 201 202 202 205
112 113 108 102 106 114 111 95 75 69 86 119 121 99 82 72 70 78 82 82 83 85 84 79 64 44 38 32 17 4 353 345 339 329 319 312 302 294 291 289 279 264 256 252 241 232 234 229 206 188 191 201 207 201 195 194 196 196 197 198 199 199 193 188 188 184 180 183 186 180 176 178 176 174 178 183 183 183 189 194 198 203 207 207 210
102 104 105 102 102 107 108 105 106 108 100 104 128 124 106 95 90 89 90 85 80 79 80 79 73 60 49 38 24 13 4 356 350 342 332 323 315 309 306 300 295 286 268 252 240 233 232 228 210 193 195 204 211 207 198 196 196 194 193 194 197 197 192 187 185 181 175 176 179 179 178 178 174 174 181 186 182 180 184 190 195 201 207 210 216
102 102 104 104 102 101 102 101 102 105 105 102 106 110 113 114 112 108 103 88 70 64 64 64 58 49 44 38 26 15 7 360 354 345 336 329 323 321 316 306 299 296 281 255 242 237 234 227 214 203 202 205 208 207 203 200 198 195 193 192 193 193 189 185 182 176 172 173 177 178 178 176 173 175 182 184 181 180 183 188 193 200 207 212 218
99 97 98 101 101 100 101 100 97 95 93 94 98 98 92 91 98 102 103 102 90 62 346 355 42 26 14 9 5 360 354 354 352 345 338 335 330 325 321 314 305 299 284 255 243 242 239 233 223 214 210 210 208 206 205 202 198 195 192 191 189 187 184 180 176 172 171 174 176 175 174 174 172 173 177 180 181 183 187 190 192 198 207 213 217
93 90 91 96 98 97 96 95 95 94 93 94 97 97 92 88 88 77 59 47 34 344 303 241 216 344 340 337 339 342 342 345 348 347 344 341 334 326 321 316 308 299 283 256 245 243 241 238 232 222 216 213 209 204 201 199 195 192 190 187 184 180 176 174 173 173 172 174 175 172 170 171 172 171 173 177 181 185 193 199 198 198 204 211 215
95 92 92 94 96 95 92 91 92 94 95 94 92 91 90 78 56 42 31 16 356 337 328 323 322 323 324 322 324 332 340 342 340 340 341 337 331 326 320 310 299 290 279 263 252 247 243 241 239 231 222 216 212 205 199 194 191 189 188 183 178 175 172 171 171 172 171 172 172 169 166 167 170 171 172 179 183 187 198 206 204 200 203 208 213
91 95 95 94 98 100 96 92 93 96 98 95 88 81 75 62 41 19 5 4 358 335 327 334 334 324 324 327 325 331 339 340 333 331 334 332 327 324 315 300 288 283 282 277 267 257 250 246 244 239 231 222 214 206 198 191 187 186 184 179 173 168 167 167 167 167 167 167 167 166 164 163 165 169 174 182 187 190 200 209 209 206 205 204 204
79 87 86 82 91 101 102 99 99 99 100 95 83 66 48 44 31 5 351 346 340 330 329 333 334 330 330 332 330 332 336 337 331 329 333 334 332 327 320 312 303 290 282 279 273 264 256 251 249 247 241 232 220 209 198 188 180 175 171 169 167 163 161 162 163 163 164 163 161 161 162 162 164 170 178 183 187 194 204 211 212 209 203 195 195
96 94 84 77 83 89 86 87 86 73 54 50 56 50 30 27 20 359 343 334 329 331 331 326 325 328 330 330 334 337 337 333 329 330 333 336 337 334 333 332 325 311 296 284 274 266 261 257 253 251 246 237 223 206 190 176 167 164 162 160 160 158 157 158 159 159 160 160 157 156 158 161 165 173 181 187 193 201 207 211 210 208 201 194 196
103 92 71 61 72 81 76 68 63 55 39 25 18 3 351 9 4 334 322 326 324 318 317 315 318 326 329 325 332 339 337 325 322 328 330 331 336 338 338 340 339 331 321 304 279 265 261 258 255 257 254 240 218 194 177 164 156 155 156 155 154 154 153 154 155 156 155 155 153 152 156 163 168 174 182 193 202 205 204 203 205 204 201 196 195
81 78 66 49 41 50 63 59 48 37 23 9 359 346 342 345 336 320 318 321 314 308 310 312 314 320 321 314 319 330 331 322 323 330 329 328 335 341 343 346 347 343 340 336 321 299 294 280 259 250 242 211 177 156 147 144 144 145 148 148 147 147 147 148 150 151 150 149 151 152 156 164 171 175 182 193 201 199 194 197 202 202 199 196 195
63 67 67 54 42 42 49 46 35 23 16 12 8 4 356 344 332 324 318 314 311 311 311 309 310 314 315 313 317 326 328 323 325 329 328 328 336 342 344 350 354 350 349 360 25 46 39 25 15 110 144 151 149 142 137 135 136 137 138 138 138 140 142 143 147 149 148 149 154 157 160 166 171 175 181 189 194 191 189 194 198 198 199 201 201
56 57 57 56 53 50 43 31 24 23 19 13 8 5 358 345 334 328 322 316 317 317 311 308 311 315 317 317 320 324 326 326 328 328 325 327 337 344 344 349 358 1 3 14 39 64 69 63 60 66 76 87 106 121 127 130 130 129 128 131 133 136 138 141 145 148 148 149 154 159 162 163 167 172 178 183 186 189 190 192 195 199 201 202 202
44 51 55 56 50 45 40 30 22 20 18 11 6 5 360 350 343 339 332 328 328 327 321 318 319 320 320 322 321 320 323 327 328 326 324 325 332 340 343 347 358 9 17 27 46 71 86 88 84 82 82 82 85 95 107 117 125 129 131 132 133 135 139 143 146 148 148 148 151 156 159 161 165 170 175 177 181 188 192 191 194 199 199 200 204
43 48 55 58 51 42 38 31 24 22 21 16 12 12 9 4 358 354 349 344 340 335 329 327 325 324 326 329 329 326 328 330 328 324 325 326 327 334 343 350 3 18 27 39 59 80 94 100 103 104 105 106 108 111 113 118 125 131 135 136 137 139 143 146 147 148 148 148 150 154 157 160 165 170 173 175 181 188 192 193 196 200 199 201 205
52 51 51 55 52 44 39 35 30 28 28 25 21 18 14 10 7 4 0 357 351 343 338 334 330 330 335 342 343 335 330 332 335 334 329 325 327 336 350 359 9 32 50 58 68 85 96 103 107 112 115 119 123 125 127 128 129 131 133 136 138 140 143 144 145 146 147 148 151 154 156 159 164 169 173 176 180 188 194 196 197 199 201 202 205
52 51 48 49 49 45 40 38 35 33 34 33 29 24 19 16 14 11 6 2 357 351 347 342 337 336 343 351 350 340 333 336 344 343 333 328 334 346 5 24 39 66 85 86 84 89 97 103 108 112 115 120 124 127 128 130 130 129 130 133 136 138 140 141 141 143 145 147 151 154 156 159 164 170 174 177 182 190 198 198 196 198 201 202 205
49 50 49 49 49 46 43 42 40 37 37 36 34 29 24 21 19 16 11 7 4 359 355 351 345 342 346 354 354 345 339 342 350 348 337 334 340 351 14 68 93 100 103 103 103 104 105 108 111 114 115 117 121 123 125 127 128 129 129 131 134 136 137 137 137 139 142 145 148 153 157 161 166 173 178 180 183 190 195 197 196 197 199 201 204
47 48 49 49 48 46 44 44 43 40 37 37 37 35 30 27 26 22 17 15 12 7 2 0 356 350 351 359 3 354 347 353 3 1 353 351 357 8 35 79 99 108 112 111 110 112 114 113 112 113 114 115 117 118 121 124 126 128 129 131 134 137 137 136 137 140 141 142 146 152 159 165 170 176 179 182 185 188 192 196 198 196 195 197 201
46 47 47 46 45 45 43 43 43 41 38 37 39 38 34 32 31 29 25 23 19 13 7 5 3 359 358 1 2 359 4 17 22 15 5 5 15 29 54 84 98 108 116 117 115 115 118 119 116 115 115 115 115 116 119 123 126 128 131 133 138 140 139 139 141 142 140 140 143 151 159 167 172 173 175 181 188 191 192 195 198 197 196 199 202
45 46 47 45 44 44 43 42 43 42 39 37 38 38 36 35 34 34 32 30 25 18 13 10 10 11 12 13 11 11 21 31 30 22 21 28 35 40 52 71 90 105 115 120 121 120 120 119 118 117 115 113 113 116 122 127 130 133 135 138 141 144 145 145 145 144 140 138 142 150 158 164 168 168 170 179 189 196 198 198 199 199 201 201 200